Location: Cossonay
(46.5833°N, 6.4167°E)
Time: 23:49:14
(UTC+00:00)

Cosmos 1697 Rocket - Pass Details

Date: 07 June 2020
Orbit: 833 x 843 km, 71.0° (Epoch: 11 July)

Event Time Altitude Azimuth Distance (km) Brightness Sun altitude
Exits shadow 01:36:26 - 259° (W) 2,594 4.9 -15.3°
Reaches altitude 10° 01:36:53 10° 262° (W) 2,463 4.8 -15.2°
Maximum altitude 01:41:19 23° 314° (NW) 1,725 4.5 -14.8°
Drops below altitude 10° 01:45:46 10° 6° (N) 2,473 6.2 -14.4°
Sets 01:48:45 0° 21° (NNE) 3,411 7.6 -14.2°
